Location: Arbon
(43.0005°N, 0.7472°E)
Time: 15:16:01
(UTC+00:00)

A-11 Canister half - Pass Details

Date: 28 November 2020
Orbit: 1517 x 1683 km, 47.2° (Epoch: 15 January)

Event Time Altitude Azimuth Distance (km) Brightness Sun altitude
Rises 17:02:52 0° 293° (WNW) 4,916 12.4 -7.2°
Reaches altitude 10° 17:06:01 10° 293° (WNW) 3,938 11.9 -7.7°
Maximum altitude 17:16:10 79° 209° (SSW) 1,713 9.4 -9.4°
Drops below altitude 10° 17:26:16 10° 125° (SE) 3,915 10.8 -11.2°
Sets 17:29:23 0° 124° (SE) 4,887 11.3 -11.7°
